CW1187 Weather Reports


Display with metric or nautical units.
time (UTC)temp
F
wind
direction
speed
MPH
gust
MPH
rain 1hr
in
rain 24hr
in
rain mn
in
humidity
%
barometer
mb
20260904230425 83 96 1.0 8.0 0.00 0.57 0.57 73 1014.3
20260904223941 83 104 3.0 10.0 0.00 0.57 0.57 72 1014.5
20260904222449 84 86 2.0 6.0 0.00 0.57 0.57 72 1014.5
20260904221104 84 155 2.0 5.0 0.00 0.57 0.57 71 1014.4
20260904220323 86 71 2.0 8.0 0.00 0.57 0.57 72 1014.2
20260904214345 87 163 2.0 8.0 0.01 0.57 0.57 71 1014.0
20260904213340 88 44 2.0 4.0 0.01 0.57 0.57 65 1014.2
20260904213043 89 67 2.0 4.0 0.01 0.57 0.57 62 1014.4
20260904211747 89 0 1.0 5.0 0.01 0.57 0.57 62 1014.4
20260904211358 89 159 2.0 5.0 0.01 0.57 0.57 69 1014.3
20260904210823 88 155 0.0 3.0 0.01 0.57 0.57 67 1014.4
20260904204901 84 157 0.0 3.0 0.12 0.56 0.56 77 1014.7
20260904204428 83 0 0.0 1.0 0.30 0.56 0.56 80 1014.7
20260904203826 82 0 0.0 2.0 0.47 0.56 0.56 87 1014.8
20260904202841 80 0 0.0 2.0 0.56 0.56 0.56 87 1014.9
20260904202110 79 0 0.0 2.0 0.56 0.56 0.56 90 1015.0
20260904201929 77 0 0.0 6.0 0.56 0.56 0.56 88 1014.9
20260904201351 77 0 1.0 6.0 0.56 0.56 0.56 88 1015.0
20260904194841 76 188 4.0 33.0 0.42 0.42 0.42 76 1016.7
20260904193419 95 263 1.0 8.0 0.00 0.00 0.00 54 1015.3
20260904192800 96 264 2.0 9.0 0.00 0.00 0.00 53 1015.1
20260904191404 99 266 2.0 9.0 0.00 0.00 0.00 51 1015.1
20260904185319 98 232 2.0 7.0 0.00 0.00 0.00 52 1015.5
20260904185029 98 232 2.0 7.0 0.00 0.00 0.00 52 1015.5
20260904184936 98 228 1.0 6.0 0.00 0.00 0.00 51 1015.6
20260904184451 98 297 1.0 8.0 0.00 0.00 0.00 52 1015.7
20260904183502 98 247 1.0 5.0 0.00 0.00 0.00 53 1015.9
20260904182716 97 239 2.0 5.0 0.00 0.00 0.00 51 1016.0
20260904182116 97 0 1.0 4.0 0.00 0.00 0.00 52 1016.0
20260904181857 97 277 2.0 5.0 0.00 0.00 0.00 58 1016.1
20260904175844 98 311 2.0 8.0 0.00 0.00 0.00 53 1016.3
20260904175234 97 317 2.0 10.0 0.00 0.00 0.00 54 1016.3
20260904173916 97 279 2.0 9.0 0.00 0.00 0.00 52 1016.5
20260904173037 97 316 2.0 8.0 0.00 0.00 0.00 52 1016.6
20260904172525 97 257 2.0 8.0 0.00 0.00 0.00 55 1016.6
20260904170801 95 296 2.0 8.0 0.00 0.00 0.00 54 1016.8
20260904170425 95 271 3.0 8.0 0.00 0.00 0.00 54 1016.8
20260904165329 95 325 2.0 9.0 0.00 0.00 0.00 56 1016.9
20260904164852 94 265 3.0 9.0 0.00 0.00 0.00 55 1016.9
20260904164802 94 265 3.0 9.0 0.00 0.00 0.00 55 1016.9
20260904163755 94 281 2.0 8.0 0.00 0.00 0.00 58 1017.0
20260904163426 94 288 2.0 9.0 0.00 0.00 0.00 57 1017.0
20260904160647 93 289 3.0 9.0 0.00 0.00 0.00 63 1017.1
20260904160545 93 289 3.0 9.0 0.00 0.00 0.00 63 1017.1
20260904160444 94 279 3.0 8.0 0.00 0.00 0.00 62 1017.0
20260904154946 94 297 2.0 6.0 0.00 0.00 0.00 58 1017.1
20260904152733 93 290 0.0 7.0 0.00 0.00 0.00 61 1017.1
20260904150652 92 253 2.0 7.0 0.00 0.00 0.00 61 1017.0
20260904150528 92 234 2.0 7.0 0.00 0.00 0.00 61 1017.0
20260904145748 92 0 1.0 7.0 0.00 0.00 0.00 61 1017.1
20260904145002 91 248 2.0 6.0 0.00 0.00 0.00 64 1017.0
20260904143453 90 251 2.0 7.0 0.00 0.00 0.00 64 1016.9
20260904134027 86 257 1.0 4.0 0.00 0.00 0.00 69 1016.9
20260904133556 85 0 1.0 5.0 0.00 0.00 0.00 69 1017.0
20260904132045 84 269 0.0 6.0 0.00 0.00 0.00 72 1016.9
20260904131945 84 271 1.0 6.0 0.00 0.00 0.00 73 1016.9
20260904125827 81 237 1.0 3.0 0.00 0.00 0.00 77 1016.8
20260904124852 80 229 1.0 3.0 0.00 0.00 0.00 77 1016.8
20260904124752 80 229 1.0 3.0 0.00 0.00 0.00 77 1016.8
20260904124144 80 225 0.0 3.0 0.00 0.00 0.00 79 1016.7
20260904123525 78 224 1.0 3.0 0.00 0.00 0.00 79 1016.6
20260904121959 78 0 1.0 4.0 0.00 0.00 0.00 80 1016.5
20260904121240 77 0 1.0 4.0 0.00 0.00 0.00 80 1016.5
20260904114233 76 0 0.0 2.0 0.00 0.00 0.00 81 1016.1
20260904113720 76 0 0.0 2.0 0.00 0.00 0.00 81 1016.1
20260904113425 76 228 0.0 2.0 0.00 0.00 0.00 81 1015.9
20260904112359 76 0 0.0 3.0 0.00 0.00 0.00 81 1015.8
20260904111020 76 238 1.0 3.0 0.00 0.00 0.00 80 1015.6
20260904105458 77 219 0.0 3.0 0.00 0.00 0.00 80 1015.5
20260904104921 77 217 0.0 3.0 0.00 0.00 0.00 79 1015.4
20260904104820 77 217 0.0 3.0 0.00 0.00 0.00 79 1015.4
20260904104640 77 217 0.0 3.0 0.00 0.00 0.00 79 1015.4
20260904104221 77 221 1.0 4.0 0.00 0.00 0.00 79 1015.4
20260904104048 77 221 1.0 4.0 0.00 0.00 0.00 79 1015.4
20260904103657 77 211 0.0 4.0 0.00 0.00 0.00 79 1015.4
20260904103002 77 209 1.0 4.0 0.00 0.00 0.00 79 1015.4
20260904101816 77 211 1.0 4.0 0.00 0.00 0.00 80 1015.5
20260904101402 77 205 1.0 4.0 0.00 0.00 0.00 80 1015.5
20260904100941 77 199 1.0 4.0 0.00 0.00 0.00 80 1015.5
20260904095404 77 204 1.0 3.0 0.00 0.00 0.00 80 1015.4
20260904094449 77 209 0.0 3.0 0.00 0.00 0.00 80 1015.5
20260904093850 77 208 1.0 3.0 0.00 0.00 0.00 80 1015.6
20260904093132 77 207 1.0 3.0 0.00 0.00 0.00 80 1015.6
20260904092837 77 197 0.0 3.0 0.00 0.00 0.00 80 1015.6
20260904092731 77 197 0.0 3.0 0.00 0.00 0.00 80 1015.6
20260904091538 77 192 0.0 3.0 0.00 0.00 0.00 81 1015.5
20260904090333 77 194 0.0 4.0 0.00 0.00 0.00 81 1015.5
20260904085018 76 175 1.0 3.0 0.00 0.00 0.00 83 1015.5
20260904083826 76 173 1.0 3.0 0.00 0.00 0.00 83 1015.5
20260904083522 76 0 0.0 3.0 0.00 0.00 0.00 84 1015.5
20260904082938 76 172 1.0 3.0 0.00 0.00 0.00 84 1015.4
20260904082220 76 172 0.0 1.0 0.00 0.00 0.00 84 1015.5
20260904081931 76 172 0.0 1.0 0.00 0.00 0.00 84 1015.4
20260904081240 77 0 0.0 1.0 0.00 0.00 0.00 84 1015.5
20260904080321 77 0 0.0 0.0 0.00 0.00 0.00 83 1015.5
20260904080223 77 0 0.0 0.0 0.00 0.00 0.00 83 1015.5
20260904080149 77 0 0.0 0.0 0.00 0.00 0.00 83 1015.5
20260904074852 77 0 0.0 2.0 0.00 0.00 0.00 83 1015.7
20260904074327 77 0 0.0 2.0 0.00 0.00 0.00 83 1015.6
20260904073941 77 171 0.0 2.0 0.00 0.00 0.00 84 1015.6
20260904072245 77 172 0.0 2.0 0.00 0.00 0.00 84 1015.7
20260904071954 77 0 0.0 1.0 0.00 0.00 0.00 84 1015.9
20260904071203 77 172 0.0 1.0 0.00 0.00 0.00 84 1015.9
20260904071048 77 172 0.0 1.0 0.00 0.00 0.00 84 1015.9
20260904070942 77 0 0.0 0.0 0.00 0.00 0.00 83 1015.9
20260904070256 77 0 0.0 0.0 0.00 0.00 0.00 83 1015.9
20260904065318 77 0 0.0 1.0 0.00 0.00 0.00 83 1016.0
20260904062119 78 0 0.0 0.0 0.00 0.00 0.00 82 1016.1
20260904060518 78 0 0.0 0.0 0.00 0.00 0.00 82 1016.2
20260904055718 78 0 0.0 0.0 0.00 0.00 0.00 81 1016.3
20260904052335 79 0 0.0 1.0 0.00 0.00 0.00 80 1016.3
20260904052033 79 0 0.0 1.0 0.00 0.00 0.00 80 1016.3
20260904051724 79 0 0.0 1.0 0.00 0.00 0.00 79 1016.3
20260904051040 79 0 0.0 1.0 0.00 0.00 0.00 79 1016.3
20260904050935 79 0 0.0 2.0 0.00 0.00 0.00 79 1016.3
20260904050129 79 0 0.0 2.0 0.00 0.00 0.00 79 1016.2
20260904045849 79 0 0.0 2.0 0.00 0.00 0.00 79 1016.3
20260904044119 79 173 0.0 2.0 0.00 0.00 0.00 79 1016.2
20260904043955 79 173 0.0 3.0 0.00 0.00 0.00 79 1016.1
20260904043103 79 0 0.0 3.0 0.00 0.00 0.00 79 1016.2
20260904042643 79 0 0.0 3.0 0.00 0.00 0.00 79 1016.1
20260904042149 80 170 0.0 4.0 0.00 0.00 0.00 79 1016.0
20260904041356 80 0 0.0 2.0 0.00 0.00 0.00 79 1016.1
20260904040254 80 169 0.0 2.0 0.00 0.00 0.00 79 1016.0
20260904034222 80 170 0.0 1.0 0.00 0.00 0.00 79 1015.8
20260904031731 81 170 1.0 2.0 0.00 0.00 0.00 78 1016.0
20260904031022 81 169 1.0 3.0 0.00 0.00 0.00 78 1016.1
20260904030918 81 169 1.0 3.0 0.00 0.00 0.00 78 1016.1
20260904025521 82 168 0.0 2.0 0.00 0.00 0.00 77 1016.2
20260904023917 82 0 0.0 2.0 0.00 0.00 0.00 76 1016.2
20260904023123 82 0 0.0 2.0 0.00 0.00 0.00 76 1016.2
20260904022356 82 168 0.0 2.0 0.00 0.00 0.00 76 1016.1
20260904021914 82 169 0.0 4.0 0.00 0.00 0.00 76 1016.1
20260904021431 82 0 0.0 4.0 0.00 0.00 0.00 75 1016.1
20260904020954 83 170 1.0 3.0 0.00 0.00 0.00 75 1016.1
20260904020357 83 178 0.0 3.0 0.00 0.00 0.00 74 1016.1
20260904015319 84 180 0.0 3.0 0.00 0.00 0.00 73 1016.1
20260904014827 84 206 0.0 2.0 0.00 0.00 0.00 72 1016.1
20260904013737 84 0 0.0 3.0 0.00 0.00 0.00 71 1016.1
20260904013301 84 210 0.0 3.0 0.00 0.00 0.00 71 1016.1
20260904012956 84 0 0.0 1.0 0.00 0.00 0.00 71 1016.1
20260904012320 85 0 0.0 1.0 0.00 0.00 0.00 70 1016.0
20260904011945 85 0 0.0 1.0 0.00 0.00 0.00 70 1016.0
20260904011426 85 0 0.0 2.0 0.00 0.00 0.00 70 1015.9
20260904010719 85 0 0.0 2.0 0.00 0.00 0.00 70 1015.9
20260904010323 86 211 0.0 2.0 0.00 0.00 0.00 69 1015.9
20260904005928 86 0 0.0 1.0 0.00 0.00 0.00 68 1015.9
20260904005731 86 0 0.0 1.0 0.00 0.00 0.00 68 1015.9
20260904004637 86 0 0.0 2.0 0.00 0.00 0.00 68 1015.7
20260904004230 87 0 0.0 2.0 0.00 0.00 0.00 67 1015.6
20260904003424 87 0 0.0 2.0 0.00 0.00 0.00 66 1015.7
20260904002526 88 0 0.0 3.0 0.00 0.00 0.00 66 1015.5
20260904001941 88 211 0.0 3.0 0.00 0.00 0.00 66 1015.4
20260904000535 89 0 0.0 3.0 0.00 0.00 0.00 66 1015.5
20260903235928 90 0 0.0 2.0 0.00 0.00 0.00 65 1015.4
20260903235028 90 0 0.0 2.0 0.00 0.00 0.00 64 1015.4
20260903233828 90 0 0.0 3.0 0.00 0.00 0.00 63 1015.3
20260903233756 90 0 0.0 3.0 0.00 0.00 0.00 63 1015.3
20260903233318 91 0 0.0 3.0 0.00 0.00 0.00 62 1015.4
20260903233244 91 0 0.0 3.0 0.00 0.00 0.00 62 1015.4
20260903232527 91 0 1.0 3.0 0.00 0.00 0.00 61 1015.3